Location: Gudip?du
(17.0263°N, 80.8301°E)
Time: 12:09:12
(UTC+00:00)

BREEZE-M DEB (TANK) - Pass Details

Date: 03 August 2024
Orbit: 322 x 16353 km, 49.5° (Epoch: 12 September)

Event Time Altitude Azimuth Distance (km) Brightness Sun altitude
Exits shadow 22:15:21 49° 246° (WSW) 1,950 4.5 -27.5°
Maximum altitude 22:17:38 67° 305° (NW) 1,300 3.9 -27.0°
Drops below altitude 10° 22:21:53 10° 30° (NNE) 2,079 6.0 -26.1°
Sets 22:23:15 0° 33° (NNE) 2,677 6.8 -25.9°
